Time,TemperatureF,DewpointF,PressureIn,WindDirection,WindDirectionDegrees,WindSpeedMPH,WindSpeedGustMPH,Humidity,HourlyPrecipIn,Conditions,Clouds,dailyrainin,SoftwareType,DateUTC
2013-03-14 00:07:00,49.3,30.0,30.11,NW,318,3.0,9.0,47,0.00,,,0.00,weatherlink.com 1.10,2013-03-14 04:07:00,
2013-03-14 00:22:00,48.6,29.0,30.11,North,357,2.0,12.0,47,0.00,,,0.00,weatherlink.com 1.10,2013-03-14 04:22:00,
2013-03-14 00:37:00,48.0,28.0,30.12,NNW,333,3.0,12.0,46,0.00,,,0.00,weatherlink.com 1.10,2013-03-14 04:37:00,
2013-03-14 00:53:00,47.5,27.0,30.12,North,350,3.0,9.0,46,0.00,,,0.00,weatherlink.com 1.10,2013-03-14 04:53:00,
2013-03-14 01:08:00,46.9,27.0,30.12,North,350,3.0,9.0,47,0.00,,,0.00,weatherlink.com 1.10,2013-03-14 05:08:00,
2013-03-14 01:23:00,46.3,26.0,30.12,North,359,5.0,11.0,46,0.00,,,0.00,weatherlink.com 1.10,2013-03-14 05:23:00,
2013-03-14 01:38:00,45.9,27.0,30.13,NW,312,3.0,8.0,47,0.00,,,0.00,weatherlink.com 1.10,2013-03-14 05:38:00,
2013-03-14 01:54:00,45.2,26.0,30.13,North,350,8.0,11.0,47,0.00,,,0.00,weatherlink.com 1.10,2013-03-14 05:54:00,
2013-03-14 02:08:00,44.8,26.0,30.14,NNE,27,6.0,8.0,48,0.00,,,0.00,weatherlink.com 1.10,2013-03-14 06:08:00,
2013-03-14 02:23:00,44.4,26.0,30.14,NNW,341,3.0,9.0,48,0.00,,,0.00,weatherlink.com 1.10,2013-03-14 06:23:00,
2013-03-14 02:38:00,43.9,26.0,30.14,NW,326,1.0,7.0,49,0.00,,,0.00,weatherlink.com 1.10,2013-03-14 06:38:00,
2013-03-14 02:53:00,43.4,26.0,30.15,North,3,6.0,11.0,51,0.00,,,0.00,weatherlink.com 1.10,2013-03-14 06:53:00,
2013-03-14 03:08:00,43.1,26.0,30.14,NW,316,1.0,12.0,52,0.00,,,0.00,weatherlink.com 1.10,2013-03-14 07:08:00,
2013-03-14 03:23:00,42.7,26.0,30.15,NE,46,3.0,13.0,52,0.00,,,0.00,weatherlink.com 1.10,2013-03-14 07:23:00,
2013-03-14 03:38:00,42.1,26.0,30.16,NW,319,6.0,12.0,53,0.00,,,0.00,weatherlink.com 1.10,2013-03-14 07:38:00,
2013-03-14 03:53:00,41.9,26.0,30.16,NNW,330,6.0,10.0,53,0.00,,,0.00,weatherlink.com 1.10,2013-03-14 07:53:00,
2013-03-14 04:08:00,41.5,25.0,30.16,NNW,347,6.0,11.0,52,0.00,,,0.00,weatherlink.com 1.10,2013-03-14 08:08:00,
2013-03-14 04:23:00,41.0,24.0,30.17,NNE,33,3.0,11.0,52,0.00,,,0.00,weatherlink.com 1.10,2013-03-14 08:23:00,
2013-03-14 04:38:00,40.5,24.0,30.17,NW,320,2.0,12.0,53,0.00,,,0.00,weatherlink.com 1.10,2013-03-14 08:38:00,
2013-03-14 04:53:00,40.1,24.0,30.18,NW,309,3.0,10.0,54,0.00,,,0.00,weatherlink.com 1.10,2013-03-14 08:53:00,
2013-03-14 05:08:00,39.6,24.0,30.18,NNE,27,3.0,11.0,55,0.00,,,0.00,weatherlink.com 1.10,2013-03-14 09:08:00,
2013-03-14 05:23:00,39.2,24.0,30.18,North,351,7.0,11.0,54,0.00,,,0.00,weatherlink.com 1.10,2013-03-14 09:23:00,
2013-03-14 05:38:00,38.8,24.0,30.19,NW,315,2.0,11.0,55,0.00,,,0.00,weatherlink.com 1.10,2013-03-14 09:38:00,
2013-03-14 05:54:00,38.3,24.0,30.20,West,268,5.0,10.0,56,0.00,,,0.00,weatherlink.com 1.10,2013-03-14 09:54:00,
2013-03-14 06:09:00,38.1,23.0,30.21,North,353,3.0,13.0,55,0.00,,,0.00,weatherlink.com 1.10,2013-03-14 10:09:00,
2013-03-14 06:24:00,37.7,23.0,30.21,NNW,337,6.0,9.0,55,0.00,,,0.00,weatherlink.com 1.10,2013-03-14 10:24:00,
2013-03-14 06:39:00,37.6,23.0,30.22,NNW,330,5.0,11.0,55,0.00,,,0.00,weatherlink.com 1.10,2013-03-14 10:39:00,
2013-03-14 06:54:00,37.1,23.0,30.23,NNW,329,0.0,8.0,56,0.00,,,0.00,weatherlink.com 1.10,2013-03-14 10:54:00,
2013-03-14 07:09:00,36.5,22.0,30.23,NNW,340,7.0,7.0,57,0.00,,,0.00,weatherlink.com 1.10,2013-03-14 11:09:00,
2013-03-14 07:24:00,36.3,22.0,30.24,NNW,336,4.0,7.0,56,0.00,,,0.00,weatherlink.com 1.10,2013-03-14 11:24:00,
2013-03-14 07:39:00,36.1,22.0,30.25,North,355,4.0,10.0,56,0.00,,,0.00,weatherlink.com 1.10,2013-03-14 11:39:00,
2013-03-14 07:54:00,35.9,22.0,30.25,North,357,3.0,5.0,58,0.00,,,0.00,weatherlink.com 1.10,2013-03-14 11:54:00,
2013-03-14 08:09:00,36.3,22.0,30.26,NNW,345,6.0,9.0,57,0.00,,,0.00,weatherlink.com 1.10,2013-03-14 12:09:00,
2013-03-14 08:24:00,36.9,22.0,30.27,North,353,8.0,9.0,56,0.00,,,0.00,weatherlink.com 1.10,2013-03-14 12:24:00,
2013-03-14 08:39:00,37.9,22.0,30.28,NNW,342,2.0,12.0,52,0.00,,,0.00,weatherlink.com 1.10,2013-03-14 12:39:00,
2013-03-14 08:54:00,38.6,22.0,30.28,North,9,5.0,13.0,51,0.00,,,0.00,weatherlink.com 1.10,2013-03-14 12:54:00,
2013-03-14 09:09:00,39.4,22.0,30.29,NW,313,7.0,13.0,50,0.00,,,0.00,weatherlink.com 1.10,2013-03-14 13:09:00,
2013-03-14 09:24:00,39.7,20.0,30.28,NNE,22,5.0,13.0,46,0.00,,,0.00,weatherlink.com 1.10,2013-03-14 13:24:00,
2013-03-14 09:39:00,40.8,21.0,30.29,ENE,65,4.0,12.0,46,0.00,,,0.00,weatherlink.com 1.10,2013-03-14 13:39:00,
2013-03-14 09:54:00,40.9,21.0,30.29,NW,306,5.0,16.0,45,0.00,,,0.00,weatherlink.com 1.10,2013-03-14 13:54:00,
2013-03-14 10:09:00,41.3,20.0,30.29,NE,35,4.0,17.0,42,0.00,,,0.00,weatherlink.com 1.10,2013-03-14 14:09:00,
2013-03-14 10:24:00,41.6,20.0,30.29,NNW,343,6.0,14.0,43,0.00,,,0.00,weatherlink.com 1.10,2013-03-14 14:24:00,
2013-03-14 10:39:00,42.4,21.0,30.28,NE,44,12.0,13.0,43,0.00,,,0.00,weatherlink.com 1.10,2013-03-14 14:39:00,
2013-03-14 10:54:00,42.3,20.0,30.28,North,4,4.0,14.0,41,0.00,,,0.00,weatherlink.com 1.10,2013-03-14 14:54:00,
2013-03-14 11:09:00,43.5,22.0,30.28,NNW,337,7.0,14.0,42,0.00,,,0.00,weatherlink.com 1.10,2013-03-14 15:09:00,
2013-03-14 11:24:00,43.8,22.0,30.28,NW,305,3.0,15.0,42,0.00,,,0.00,weatherlink.com 1.10,2013-03-14 15:24:00,
2013-03-14 11:39:00,44.4,22.0,30.28,NNW,345,9.0,14.0,42,0.00,,,0.00,weatherlink.com 1.10,2013-03-14 15:39:00,
2013-03-14 11:54:00,44.7,23.0,30.27,NW,312,8.0,10.0,43,0.00,,,0.00,weatherlink.com 1.10,2013-03-14 15:54:00,
2013-03-14 12:09:00,45.3,22.0,30.27,NW,306,6.0,12.0,40,0.00,,,0.00,weatherlink.com 1.10,2013-03-14 16:09:00,
2013-03-14 12:24:00,45.0,22.0,30.27,NNW,327,5.0,13.0,40,0.00,,,0.00,weatherlink.com 1.10,2013-03-14 16:24:00,
2013-03-14 12:39:00,46.1,23.0,30.25,WNW,291,7.0,13.0,41,0.00,,,0.00,weatherlink.com 1.10,2013-03-14 16:39:00,
2013-03-14 12:54:00,46.0,23.0,30.25,NNW,343,8.0,15.0,40,0.00,,,0.00,weatherlink.com 1.10,2013-03-14 16:54:00,
2013-03-14 13:09:00,46.7,21.0,30.25,North,350,7.0,15.0,37,0.00,,,0.00,weatherlink.com 1.10,2013-03-14 17:09:00,
2013-03-14 13:24:00,47.3,24.0,30.24,NNW,332,3.0,13.0,41,0.00,,,0.00,weatherlink.com 1.10,2013-03-14 17:24:00,
2013-03-14 13:39:00,48.8,23.0,30.24,NW,317,6.0,16.0,37,0.00,,,0.00,weatherlink.com 1.10,2013-03-14 17:39:00,
2013-03-14 13:54:00,49.2,23.0,30.23,ESE,103,8.0,13.0,36,0.00,,,0.00,weatherlink.com 1.10,2013-03-14 17:54:00,
2013-03-14 14:09:00,49.5,22.0,30.23,WNW,300,3.0,16.0,34,0.00,,,0.00,weatherlink.com 1.10,2013-03-14 18:09:00,
2013-03-14 14:24:00,50.2,24.0,30.22,NW,318,4.0,10.0,36,0.00,,,0.00,weatherlink.com 1.10,2013-03-14 18:24:00,
2013-03-14 14:39:00,50.4,21.0,30.22,NW,312,8.0,14.0,32,0.00,,,0.00,weatherlink.com 1.10,2013-03-14 18:39:00,
2013-03-14 14:54:00,50.6,22.0,30.22,ENE,63,0.0,10.0,32,0.00,,,0.00,weatherlink.com 1.10,2013-03-14 18:54:00,
2013-03-14 15:10:00,51.6,22.0,30.21,NNW,345,4.0,12.0,32,0.00,,,0.00,weatherlink.com 1.10,2013-03-14 19:10:00,
2013-03-14 15:25:00,52.2,23.0,30.20,WNW,297,1.0,13.0,32,0.00,,,0.00,weatherlink.com 1.10,2013-03-14 19:25:00,
2013-03-14 15:40:00,52.2,23.0,30.20,West,277,5.0,14.0,32,0.00,,,0.00,weatherlink.com 1.10,2013-03-14 19:40:00,
2013-03-14 15:55:00,52.8,23.0,30.19,ENE,73,2.0,14.0,31,0.00,,,0.00,weatherlink.com 1.10,2013-03-14 19:55:00,
2013-03-14 16:10:00,53.8,25.0,30.18,NW,312,3.0,10.0,33,0.00,,,0.00,weatherlink.com 1.10,2013-03-14 20:10:00,
2013-03-14 16:25:00,53.8,24.0,30.18,North,2,13.0,16.0,31,0.00,,,0.00,weatherlink.com 1.10,2013-03-14 20:25:00,
2013-03-14 16:40:00,53.9,23.0,30.17,West,275,5.0,11.0,30,0.00,,,0.00,weatherlink.com 1.10,2013-03-14 20:40:00,
2013-03-14 16:55:00,53.9,24.0,30.17,WNW,293,2.0,10.0,31,0.00,,,0.00,weatherlink.com 1.10,2013-03-14 20:55:00,
2013-03-14 17:10:00,54.4,24.0,30.17,NW,307,2.0,9.0,31,0.00,,,0.00,weatherlink.com 1.10,2013-03-14 21:10:00,
2013-03-14 17:25:00,54.1,23.0,30.16,NW,326,6.0,11.0,30,0.00,,,0.00,weatherlink.com 1.10,2013-03-14 21:25:00,
2013-03-14 17:40:00,54.0,23.0,30.16,SW,234,2.0,7.0,30,0.00,,,0.00,weatherlink.com 1.10,2013-03-14 21:40:00,
2013-03-14 17:55:00,54.1,24.0,30.16,NNW,340,4.0,10.0,31,0.00,,,0.00,weatherlink.com 1.10,2013-03-14 21:55:00,
2013-03-14 18:10:00,53.1,23.0,30.16,NW,312,2.0,10.0,31,0.00,,,0.00,weatherlink.com 1.10,2013-03-14 22:10:00,
2013-03-14 18:25:00,52.6,23.0,30.16,NW,312,2.0,8.0,32,0.00,,,0.00,weatherlink.com 1.10,2013-03-14 22:25:00,
2013-03-14 18:40:00,52.5,22.0,30.16,NNW,340,2.0,6.0,31,0.00,,,0.00,weatherlink.com 1.10,2013-03-14 22:40:00,
2013-03-14 18:55:00,52.0,25.0,30.17,NW,306,2.0,4.0,35,0.00,,,0.00,weatherlink.com 1.10,2013-03-14 22:55:00,
2013-03-14 19:10:00,51.5,25.0,30.17,NW,318,4.0,4.0,36,0.00,,,0.00,weatherlink.com 1.10,2013-03-14 23:10:00,
2013-03-14 19:25:00,51.0,25.0,30.18,West,281,3.0,5.0,37,0.00,,,0.00,weatherlink.com 1.10,2013-03-14 23:25:00,
2013-03-14 19:40:00,50.4,25.0,30.19,West,277,0.0,3.0,38,0.00,,,0.00,weatherlink.com 1.10,2013-03-14 23:40:00,
2013-03-14 19:55:00,49.2,27.0,30.19,West,277,0.0,0.0,42,0.00,,,0.00,weatherlink.com 1.10,2013-03-14 23:55:00,
2013-03-14 20:10:00,48.1,28.0,30.18,West,277,0.0,0.0,46,0.00,,,0.00,weatherlink.com 1.10,2013-03-15 00:10:00,
2013-03-14 20:25:00,47.2,29.0,30.18,West,277,0.0,0.0,49,0.00,,,0.00,weatherlink.com 1.10,2013-03-15 00:25:00,
2013-03-14 20:40:00,46.6,30.0,30.18,West,277,0.0,0.0,53,0.00,,,0.00,weatherlink.com 1.10,2013-03-15 00:40:00,
2013-03-14 20:55:00,46.1,30.0,30.19,West,277,0.0,0.0,54,0.00,,,0.00,weatherlink.com 1.10,2013-03-15 00:55:00,
2013-03-14 21:10:00,45.2,31.0,30.19,West,277,0.0,0.0,57,0.00,,,0.00,weatherlink.com 1.10,2013-03-15 01:10:00,
2013-03-14 21:25:00,44.7,31.0,30.19,West,277,0.0,0.0,59,0.00,,,0.00,weatherlink.com 1.10,2013-03-15 01:25:00,
2013-03-14 21:40:00,44.4,32.0,30.20,West,277,0.0,0.0,63,0.00,,,0.00,weatherlink.com 1.10,2013-03-15 01:40:00,
2013-03-14 21:55:00,43.6,32.0,30.19,West,277,0.0,0.0,65,0.00,,,0.00,weatherlink.com 1.10,2013-03-15 01:55:00,
2013-03-14 22:10:00,42.7,32.0,30.19,West,277,0.0,0.0,65,0.00,,,0.00,weatherlink.com 1.10,2013-03-15 02:10:00,
2013-03-14 22:25:00,41.7,32.0,30.18,West,274,0.0,1.0,69,0.00,,,0.00,weatherlink.com 1.10,2013-03-15 02:25:00,
2013-03-14 22:40:00,40.9,32.0,30.18,West,274,0.0,0.0,71,0.00,,,0.00,weatherlink.com 1.10,2013-03-15 02:40:00,
2013-03-14 22:55:00,40.3,33.0,30.19,West,274,0.0,0.0,74,0.00,,,0.00,weatherlink.com 1.10,2013-03-15 02:55:00,
2013-03-14 23:10:00,39.4,33.0,30.19,West,274,0.0,0.0,77,0.00,,,0.00,weatherlink.com 1.10,2013-03-15 03:10:00,
2013-03-14 23:25:00,39.2,33.0,30.20,West,274,0.0,0.0,77,0.00,,,0.00,weatherlink.com 1.10,2013-03-15 03:25:00,
2013-03-14 23:40:00,38.7,33.0,30.20,West,274,0.0,0.0,79,0.00,,,0.00,weatherlink.com 1.10,2013-03-15 03:40:00,
2013-03-14 23:55:00,38.3,33.0,30.20,WSW,237,0.0,1.0,81,0.00,,,0.00,weatherlink.com 1.10,2013-03-15 03:55:00,